User: anonymous   Login
Location: Unspecified
(0.0000°N, 0.0000°E)
Time: 18:11:41
(UTC+01:00)
Language:

Cosmos 1300 - Orbit

View from above orbital plane
View from above orbital plane
View from above satellite
View from above satellite

Ground track
Ground track

The orbit data is extracted from the following two-line orbital elements,

1 12785U 81082A   14329.94167031  .00007389  00000-0  42311-3 0  8734
2 12785 082.5073 274.8505 0001489 128.5763 294.5964 15.12482628810361
Epoch (UTC): 25 November 2014 22:36:00
Eccentricity: 0.0001489
inclination: 82.5073°
perigee height: 527 km
apogee height: 529 km
right ascension of ascending node: 274.8505°
argument of perigee: 128.5763°
revolutions per day: 15.12482628
mean anomaly at epoch: 294.5964°
orbit number at epoch: 81036

The dashed part of the orbit path shows where the satellite is in the earth's shadow,  

DLR